Home > Weather > Bath > Past weeks

Flag for United Kingdom Past Weather in Bath, England, United Kingdom — Yesterday and Last 2 Weeks

Now
57 °F

Passing clouds.


Feels Like: 57 °F
Forecast: 51 / 74 °F
Wind: 5 mph from Southwest

Location: Bristol / Lulsgate

Current Time: Aug 30, 2016 at 12:36:10 AM

Latest Report: Aug 30, 2016 at 12:20 AM


Visibility: 3 mi

Pressure: 30.30 "Hg

Humidity: 94%

Dew Point: 55 °F

Location of BathLocation

Past Weather in Bath — Graph

°F

Bath Temperature Yesterday

Maximum temperature yesterday: 68 °F (at 12:50 PM)
Minimum temperature yesterday: 55 °F (at 5:20 AM)
Average temperature yesterday: 62 °F

High & Low Weather Summary for the Past Weeks

 TemperatureHumidityPressure
High79 °F (Aug 23, 1:50 PM)100% (Aug 16, 5:50 AM)30.30 "Hg (Aug 16, 5:50 AM)
Low48 °F (Aug 16, 5:50 AM)47% (Aug 16, 4:20 PM)29.59 "Hg (Aug 19, 3:20 PM)
Average62 °F83%30.01 "Hg
* Reported Aug 14 11:20 PM — Aug 29 11:20 PM, Bath, Weather by CustomWeather, © 2016

Note: Actual official high and low records may vary slightly from our data, if they occured in-between our weather recording intervals... More about our weather records

Advertising

Bath Weather History for the Previous 24 Hours

Scroll right to see more
 ConditionsComfort  
Time TempWeatherWind HumidityBarometerVisibility
11:20 PM
Mon, Aug 29
59 °FCool.7 mph94%30.30 "HgN/A
10:50 PM59 °FCool.7 mph94%30.27 "HgN/A
10:20 PM59 °FCool.8 mph88%30.27 "HgN/A
9:50 PM59 °FCool.8 mph88%30.27 "HgN/A
9:20 PM59 °FCool.9 mph88%30.27 "HgN/A
8:50 PM59 °FCool.10 mph88%30.27 "HgN/A
8:20 PM61 °FCool.8 mph88%30.24 "HgN/A
7:50 PM61 °FCool.7 mph83%30.24 "HgN/A
7:20 PM63 °FMild.7 mph77%30.24 "HgN/A
6:50 PM66 °FMild.8 mph68%30.24 "HgN/A
6:20 PM66 °FMild.10 mph68%30.24 "HgN/A
5:50 PM66 °FMild.10 mph68%30.24 "HgN/A
5:20 PM68 °FMild.13 mph64%30.24 "HgN/A
4:50 PM68 °FMild.13 mph69%30.24 "HgN/A
4:20 PM68 °FMild.12 mph64%30.24 "HgN/A
3:50 PM68 °FMild.10 mph64%30.24 "HgN/A
3:20 PM68 °FPassing clouds.9 mph64%30.24 "HgN/A
2:50 PM68 °FPassing clouds.10 mph64%30.24 "HgN/A
2:20 PM68 °FPassing clouds.10 mph60%30.24 "HgN/A
1:50 PM68 °FPassing clouds.7 mph60%30.24 "HgN/A
1:20 PM68 °FScattered clouds.7 mph60%30.24 "HgN/A
12:50 PM68 °FScattered clouds.3 mph56%30.24 "HgN/A
12:20 PM66 °FPassing clouds.3 mph60%30.24 "HgN/A
11:50 AM66 °FPassing clouds.5 mph60%30.24 "HgN/A
11:20 AM66 °FMild.3 mph64%30.21 "HgN/A
10:50 AM64 °FMild.7 mph68%30.21 "HgN/A
10:20 AM63 °FMild.5 mph77%30.21 "HgN/A
9:50 AM63 °FMild.5 mph77%30.21 "HgN/A
9:20 AM61 °FCool.6 mph83%30.21 "HgN/A
8:50 AM61 °FCool.5 mph83%30.18 "HgN/A
8:20 AM59 °FCool.5 mph88%30.18 "HgN/A
7:50 AM57 °FCool.6 mph94%30.18 "HgN/A
7:20 AM57 °FCool.6 mph94%30.18 "HgN/A
6:50 AM55 °FCool.7 mph94%30.18 "HgN/A
6:20 AM55 °FCool.6 mph94%30.15 "HgN/A
5:50 AM55 °FCool.3 mph94%30.15 "HgN/A
5:20 AM55 °FCool.6 mph94%30.12 "HgN/A
4:50 AM57 °FCool.5 mph88%30.12 "HgN/A
4:20 AM57 °FCool.6 mph94%30.12 "HgN/A
3:50 AM57 °FCool.3 mph88%30.12 "HgN/A
3:20 AM57 °FCool.5 mph88%30.12 "HgN/A
2:50 AM59 °FPassing clouds.7 mph82%30.09 "HgN/A
2:20 AM59 °FOvercast.8 mph88%30.09 "HgN/A
1:50 AM59 °FOvercast.8 mph88%30.09 "HgN/A
1:20 AM59 °FOvercast.10 mph88%30.09 "HgN/A
12:50 AM61 °FMostly cloudy.8 mph83%30.09 "HgN/A
12:20 AM61 °FPassing clouds.7 mph94%30.07 "HgN/A
Weather by CustomWeather, © 2016

See weather overviewHow to use our weather pages